Tracking 29033 objects as of 22-Jun-2024
HD Live streaming from Space Station
objects crossing your sky now

LEMUR 1

Track LEMUR 1 now!
10-day predictions
LEMUR 1 is classified as:


NORAD ID: 40044
Int'l Code: 2014-033AL
Perigee: 602.8 km
Apogee: 677.2 km
Inclination: 97.7 °
Period: 97.4 minutes
Semi major axis: 7010 km
RCS: Unknown
Launch date: June 19, 2014
Source: United States (US)
Launch site: Orenburg, Russia (OREN)
Your satellite tracking list
Your tracking list is empty




NASA's NSSDC Master Catalog

Two Line Element Set (TLE):
1 40044U 14033AL  24173.92544140  .00002209  00000-0  29985-3 0  9998
2 40044  97.6994 335.8451 0053100 291.9006  67.6565 14.78883543538005
Source of the keplerian elements: AFSPC